Regional Weather Roundup
Issued by NWS

Home | Current Version | Previous Version | Text Only | Print | Product List | Glossary Off
Versions: 1 2 3 4 5 6 7 8 9 10 11 12 13 14 15 16 17 18 19 20 21 22 23 24 25 26 27 28 29 30 31 32 33 34 35 36 37 38 39 40 41 42 43 44 45 46 47 48 49 50

000
ASUS43 KLMK 262310
RWRKY
KENTUCKY REGIONAL WEATHER ROUNDUP
NATIONAL WEATHER SERVICE LOUISVILLE KY
600 PM EST FRI DEC 26 2014

NOTE "FAIR" INDICATES FEW OR NO CLOUDS BELOW 12,000 FEET
WITH NO SIGNIFICANT WEATHER AND/OR OBSTRUCTIONS TO VISIBILITY.

KYZ001>023-026-027-061>063-070>075-270000-
WESTERN AND SOUTH CENTRAL KENTUCKY

CITY           SKY/WX    TMP DP  RH WIND       PRES   REMARKS
PADUCAH        MOCLDY    52  41  66 S8        30.12F
HENDERSON      MOCLDY    52  39  62 S7        30.14S
OWENSBORO      CLOUDY    52  42  68 S9        30.16F
HOPKINSVILLE   CLOUDY    53  37  55 S7        30.18S
BOWLING GREEN  CLOUDY    51  35  54 S6        30.21F
GLASGOW        CLOUDY    47  36  64 CALM      30.21F
$$

KYZ024-025-028>034-038-045-046-053-270000-
NORTH CENTRAL KENTUCKY

CITY           SKY/WX    TMP DP  RH WIND       PRES   REMARKS
LOUISVILLE/SDF CLOUDY    52  37  56 S12       30.17F
LOUISVILLE/LOU PTCLDY    52  36  54 SE5       30.18S
FORT KNOX      MOCLDY    48  37  65 SE9       30.17S
$$

KYZ035>037-039>044-047>052-055>060-089>105-270000-
NORTHEAST KENTUCKY

CITY           SKY/WX    TMP DP  RH WIND       PRES   REMARKS
LEXINGTON      PTCLDY    47  33  58 S8        30.21F
COVINGTON      CLOUDY    49  33  54 S12       30.17S
FRANKFORT      PTCLDY    47  33  58 S5        30.20S
$$

KYZ054-064>069-076>088-106>120-270000-
SOUTHEAST KENTUCKY

CITY           SKY/WX    TMP DP  RH WIND       PRES   REMARKS
JACKSON        PTCLDY    50  25  37 S3        30.24S
LONDON         CLEAR     51  28  41 S6        30.23F
SOMERSET       PTCLDY    50  32  50 CALM      30.25S
MIDDLESBORO    PTCLDY    45  33  65 CALM      30.29S
MONTICELLO     MOCLDY    51  32  48 CALM      30.26S
$$




USA.gov is the U.S. government's official web portal to all federal, state and local government web resources and services.